Date String (YYYY-MM-DD hh:mm:ss) UTC,Instrument flags,Ambient pressure (hPa),Sample flow (lpm),Bypass flow (lpm),Sample temperature (°C),Ambient temperature (°C),ASC tube jacket temperature (°C),LED temperature (°C),Box temperature (°C),Sample RH (%),Span deviation,Mass concentration (μg/m³),Mass concentration (μg/m³),Mass concentration (μg/m³)
DateTimeUTC,F1_M11,P_M11,Q1_M11,Q2_M11,T1_M11,T2_M11,T3_M11,T4_M11,T5_M11,U1_M11,ZSPAN_M11,X0_M11,X2_M11,X1_M11
2023-02-16 10:00:00,,0825.4,4.98,0.00,22.1,20.9,00.0,31.0,23.7,06.8,0000.0,0004.72,0002.48,0002.05
2023-02-16 10:01:00,,0825.4,5.01,0.00,22.1,20.5,00.0,31.0,23.6,06.9,0000.0,0003.98,0002.50,0002.06
2023-02-16 10:02:00,,0825.4,4.96,0.00,22.0,20.2,00.0,31.0,23.5,06.9,0000.0,0003.79,0002.46,0002.04
2023-02-16 10:03:00,,0825.5,4.99,0.00,22.0,20.0,00.0,30.9,23.4,06.9,0000.0,0003.77,0002.45,0002.04
2023-02-16 10:04:00,,0825.5,4.99,0.00,21.9,20.7,00.0,30.9,23.6,07.0,0000.0,0003.87,0002.49,0002.04
2023-02-16 10:05:00,,0825.5,5.01,0.00,22.1,21.8,00.0,30.8,23.9,07.0,0000.0,0003.88,0002.48,0002.04
2023-02-16 10:06:00,,0825.5,4.97,0.00,22.2,22.8,00.0,30.9,24.2,06.9,0000.0,0003.82,0002.45,0002.04
2023-02-16 10:07:00,,0825.5,5.02,0.00,22.3,22.8,00.0,30.9,24.2,06.9,0000.0,0003.83,0002.46,0002.06
2023-02-16 10:08:00,,0825.4,5.02,0.00,22.3,22.1,00.0,31.0,24.0,06.9,0000.0,0003.68,0002.39,0002.04
2023-02-16 10:09:00,,0825.5,5.03,0.00,22.2,21.4,00.0,31.0,23.9,07.0,0000.0,0003.57,0002.36,0002.03
2023-02-16 10:10:00,,0825.5,5.00,0.00,22.1,20.9,00.0,31.0,23.7,07.0,0000.0,0003.50,0002.34,0002.03
2023-02-16 10:11:00,,0825.5,4.99,0.00,22.1,20.5,00.0,31.0,23.6,07.0,0000.0,0002.96,0002.30,0002.03
2023-02-16 10:12:00,,0825.6,4.99,0.00,22.0,20.2,00.0,31.0,23.5,07.0,0000.0,0002.88,0002.26,0002.02
2023-02-16 10:13:00,,0825.6,5.02,0.00,22.0,20.2,00.0,30.9,23.5,07.1,0000.0,0002.89,0002.25,0002.02
2023-02-16 10:14:00,,0825.6,5.00,0.00,22.0,21.4,00.0,30.9,23.7,07.1,0000.0,0002.98,0002.27,0002.01
2023-02-16 10:15:00,,0825.6,5.03,0.00,22.1,22.4,00.0,30.9,24.0,07.0,0000.0,0002.87,0002.22,0001.99
2023-02-16 10:16:00,,0825.6,5.02,0.00,22.2,22.6,00.0,30.9,24.1,07.0,0000.0,0002.85,0002.21,0001.98
2023-02-16 10:17:00,,0825.6,5.00,0.00,22.2,21.9,00.0,31.0,24.0,07.0,0000.0,0003.24,0002.20,0001.98
2023-02-16 10:18:00,,0825.5,4.99,0.00,22.2,21.3,00.0,31.0,23.8,07.0,0000.0,0003.56,0002.21,0001.98
2023-02-16 10:19:00,,0825.5,4.99,0.00,22.1,20.8,00.0,31.0,23.6,07.0,0000.0,0003.65,0002.24,0002.00
2023-02-16 10:20:00,,0825.5,5.00,0.00,22.0,20.4,00.0,31.0,23.5,07.0,0000.0,0003.81,0002.27,0002.02
2023-02-16 10:21:00,,0825.6,5.00,0.00,22.0,20.1,00.0,31.0,23.4,07.1,0000.0,0003.83,0002.28,0002.03
2023-02-16 10:22:00,,0825.6,5.04,0.00,21.9,20.7,00.0,30.9,23.5,07.1,0000.0,0003.82,0002.28,0002.03
2023-02-16 10:23:00,,0825.6,4.96,0.00,22.1,21.9,00.0,30.9,23.9,07.0,0000.0,0003.82,0002.28,0002.02
2023-02-16 10:24:00,,0825.6,5.02,0.00,22.2,22.9,00.0,30.9,24.2,07.0,0000.0,0004.08,0002.31,0002.05
2023-02-16 10:25:00,,0825.6,5.00,0.00,22.3,23.1,00.0,30.9,24.3,06.9,0000.0,0004.19,0002.33,0002.08
2023-02-16 10:26:00,,0825.6,5.02,0.00,22.3,22.4,00.0,31.0,24.1,06.9,0000.0,0004.20,0002.39,0002.16
2023-02-16 10:27:00,,0825.6,5.00,0.00,22.3,21.7,00.0,31.0,24.0,06.9,0000.0,0004.22,0002.44,0002.23
2023-02-16 10:28:00,,0825.6,5.00,0.00,22.2,21.1,00.0,31.0,23.8,06.9,0000.0,0004.00,0002.50,0002.29
2023-02-16 10:29:00,,0825.6,5.01,0.00,22.1,20.7,00.0,31.0,23.7,06.9,0000.0,0003.54,0002.53,0002.33
2023-02-16 10:30:00,,0825.6,5.00,0.00,22.1,20.3,00.0,31.0,23.6,06.9,0000.0,0003.67,0002.63,0002.38
2023-02-16 10:31:00,,0825.5,5.02,0.00,22.0,20.0,00.0,31.0,23.4,07.0,0000.0,0003.70,0002.70,0002.44
2023-02-16 10:32:00,,0825.5,4.99,0.00,22.0,20.4,00.0,30.9,23.5,07.0,0000.0,0003.76,0002.76,0002.50
2023-02-16 10:33:00,,0825.6,4.99,0.00,22.1,21.6,00.0,30.9,23.8,06.9,0000.0,0003.85,0002.85,0002.59
2023-02-16 10:34:00,,0825.5,4.95,0.00,22.2,22.5,00.0,30.9,24.1,06.9,0000.0,0004.04,0003.01,0002.73
2023-02-16 10:35:00,,0825.6,5.03,0.00,22.3,22.8,00.0,30.9,24.2,06.8,0000.0,0003.91,0003.12,0002.85
2023-02-16 10:36:00,,0825.5,5.00,0.00,22.3,22.1,00.0,31.0,24.0,06.8,0000.0,0003.89,0003.17,0002.94
2023-02-16 10:37:00,,0825.5,4.99,0.00,22.2,21.4,00.0,31.0,23.7,06.8,0000.0,0004.07,0003.23,0003.03
2023-02-16 10:38:00,,0825.5,5.01,0.00,22.1,20.7,00.0,31.0,23.5,06.9,0000.0,0004.22,0003.30,0003.12
2023-02-16 10:39:00,,0825.5,5.01,0.00,22.0,20.2,00.0,31.0,23.3,06.9,0000.0,0004.38,0003.37,0003.19
2023-02-16 10:40:00,,0825.5,5.00,0.00,21.8,20.0,00.0,30.9,23.2,06.9,0000.0,0004.58,0003.46,0003.26
2023-02-16 10:41:00,,0825.6,4.99,0.00,21.9,20.8,00.0,30.9,23.4,07.0,0000.0,0005.89,0003.49,0003.30
2023-02-16 10:42:00,,0825.6,4.98,0.00,22.0,21.8,00.0,30.9,23.8,06.9,0000.0,0005.85,0003.48,0003.31
2023-02-16 10:43:00,,0825.6,4.99,0.00,22.1,22.5,00.0,30.9,24.0,06.9,0000.0,0006.00,0003.52,0003.33
2023-02-16 10:44:00,,0825.6,4.97,0.00,22.2,22.9,00.0,30.9,24.1,06.9,0000.0,0006.20,0003.57,0003.34
2023-02-16 10:45:00,,0825.6,5.01,0.00,22.2,22.1,00.0,31.0,23.9,06.8,0000.0,0006.33,0003.59,0003.33
2023-02-16 10:46:00,,0825.6,5.02,0.00,22.1,21.3,00.0,31.0,23.7,06.9,0000.0,0006.47,0003.61,0003.32
2023-02-16 10:47:00,,0825.6,5.00,0.00,22.0,20.6,00.0,31.0,23.4,06.9,0000.0,0006.66,0003.62,0003.31
2023-02-16 10:48:00,,0825.6,5.02,0.00,21.9,20.1,00.0,30.9,23.2,06.9,0000.0,0006.99,0003.64,0003.29
2023-02-16 10:49:00,,0825.6,5.01,0.00,21.8,19.8,00.0,30.9,23.1,07.0,0000.0,0007.05,0003.64,0003.27
2023-02-16 10:50:00,,0825.6,5.01,0.00,21.8,20.7,00.0,30.8,23.3,07.0,0000.0,0007.22,0003.67,0003.26
2023-02-16 10:51:00,,0825.6,4.96,0.00,21.9,21.8,00.0,30.8,23.7,06.9,0000.0,0007.46,0003.71,0003.26
2023-02-16 10:52:00,,0825.6,4.94,0.00,22.1,22.7,00.0,30.8,24.0,06.9,0000.0,0006.71,0003.74,0003.27
2023-02-16 10:53:00,,0825.5,5.00,0.00,22.2,22.5,00.0,30.9,24.0,06.8,0000.0,0006.70,0003.81,0003.31
2023-02-16 10:54:00,,0825.6,4.97,0.00,22.1,21.8,00.0,30.9,23.9,06.8,0000.0,0006.81,0003.84,0003.34
2023-02-16 10:55:00,,0825.6,4.99,0.00,22.1,21.3,00.0,31.0,23.8,06.8,0000.0,0006.81,0003.88,0003.38
2023-02-16 10:56:00,,0825.6,5.01,0.00,22.0,20.8,00.0,31.0,23.7,06.8,0000.0,0006.77,0003.89,0003.42
2023-02-16 10:57:00,,0825.6,5.02,0.00,22.0,20.4,00.0,31.0,23.6,06.8,0000.0,0006.73,0003.92,0003.47
2023-02-16 10:58:00,,0825.7,4.98,0.00,22.0,20.2,00.0,30.9,23.5,06.8,0000.0,0006.54,0003.94,0003.51
2023-02-16 10:59:00,,0825.7,5.01,0.00,21.9,20.4,00.0,30.9,23.5,06.8,0000.0,0006.33,0003.96,0003.56
